Location: Makanda
(37.6176°N, 89.2090°W)
Time: 10:25:14
(UTC+00:00)

CZ-4B R/B - Pass Details

Date: 23 September 2019
Orbit: 808 x 882 km, 99.1° (Epoch: 19 October)

Event Time Altitude Azimuth Distance (km) Brightness Sun altitude
Rises 11:11:27 0° 16° (NNE) 3,421 6.7 -7.5°
Reaches altitude 10° 11:13:52 10° 20° (NNE) 2,471 6.0 -7.0°
Maximum altitude 11:19:19 66° 102° (ESE) 903 3.7 -6.0°
Drops below altitude 10° 11:24:37 10° 185° (S) 2,409 5.5 -4.9°
Sets 11:26:57 0° 188° (S) 3,330 6.2 -4.5°
